SCP
1 1 1 1 1 1 1 0 0 0 0 0 0 0 0 0 0 0 0 1 1 0 0 0 0 0 0 0 0 0 0 0 0 0 0 0 0 0 0 0 0 1 1
1 1 1 1 1 1 0 0 0 0 0 0 0 0 0 0 0 0 0 0 0 0 0 0 0 0 0 0 0 0 0 0 0 0 0 0 0 0 0 0 0 0 0
0 0 0 0 0 0 0 0 0 0 0 0 0 0 0 0 0 0 0 0 0 0 0 0 0 0 0 0 0 0 0 0 0 -0 -0 0 0 0 0 0 0 0 0
0 0 0 0 0 0 0 0 0 0 0 0 0 0 0 0 0 0 0 0 0 0 0 0 0 0 0 0 0 0 0 -0 -0 -0 -0 0 0 0 0 0 0 0 0
0 0 0 0 0 0 0 0 0 0 0 0 0 0 0 0 0 0 0 0 0 0 0 0 0 0 0 0 0 0 0 -0 -0 -0 0 0 1 1 1 0 0 0 0
0 0 0 0 0 0 0 0 0 0 0 0 0 0 0 0 0 0 0 0 0 0 0 0 0 0 0 0 0 0 -0 -0 -0 0 0 1 1 1 1 1 1 0 0
0 0 0 0 0 0 0 0 0 0 0 0 0 0 0 0 0 0 0 0 0 0 0 0 0 0 0 0 0 0 -0 -0 0 0 0 1 1 1 1 1 1 1 1
0 0 0 0 0 0 0 0 0 0 0 0 0 0 0 0 0 0 0 0 0 0 0 0 0 0 0 0 0 0 -0 -0 0 0 0 1 1 1 1 1 1 1 1
0 0 0 0 0 0 0 0 0 0 0 0 0 0 0 0 0 0 0 0 0 0 0 0 0 0 0 0 0 -0 -0 -0 0 0 0 0 1 1 0 0 0 0 0
0 0 0 0 0 0 0 0 0 0 0 0 0 0 0 0 0 0 0 0 0 0 0 0 0 0 0 0 0 -0 -0 -0 -0 0 0 0 0 0 0 0 0 0 0
0 0 0 0 0 0 0 0 0 0 0 0 0 0 0 0 0 0 0 0 0 0 0 0 0 0 0 0 0 -0 -0 -0 0 0 0 0 0 0 0 0 0 0 0
0 0 0 0 0 0 0 0 0 0 0 0 0 0 0 0 0 0 0 0 0 0 0 0 0 0 0 0 0 0 0 0 0 0 0 0 0 0 0 0 0 0 0
0 0 1 1 0 0 1 0 0 0 0 0 0 0 0 0 0 0 0 0 0 0 0 0 0 0 0 0 0 0 0 0 0 0 0 0 1 0 0 0 0 1 1
0 0 1 1 1 1 1 1 0 0 0 0 0 0 0 0 0 0 0 0 0 0 0 0 0 0 0 0 0 0 0 0 0 0 0 0 1 1 1 1 1 1 1
1 1 1 1 2 2 1 1 1 1 1 1 1 0 0 0 0 0 0 0 0 0 0 0 0 0 0 0 0 0 0 0 0 0 0 0 1 1 1 1 1 1 1
2 2 2 2 3 3 2 1 1 1 1 1 1 1 1 1 1 1 1 1 1 1 1 1 1 1 1 1 0 0 0 0 1 1 1 1 1 1 1 1 1 1 1
3 3 3 3 3 3 2 2 2 2 2 2 2 1 1 1 1 1 1 1 1 1 1 1 1 1 1 1 1 1 1 1 1 1 1 1 1 1 1 1 1 1 1
5 5 5 4 4 4 3 3 3 3 3 3 2 2 1 1 1 1 1 1 1 1 1 1 1 1 1 1 1 1 1 1 1 1 1 1 1 1 1 1 1 1 1
7 8 7 6 6 5 5 5 5 4 4 3 3 2 1 1 1 1 1 1 1 1 1 1 1 1 1 1 0 0 0 0 0 0 0 1 0 0 0 0 0 0 0
11 11 11 10 8 7 6 6 6 5 4 4 3 2 2 1 1 1 1 1 1 1 1 0 0 0 0 0 0 0 0 0 0 0 0 0 0 0 0 0 0 0 0
15 15 14 13 11 9 8 7 6 5 4 3 2 2 1 1 1 0 0 0 0 0 0 0 0 0 0 0 0 0 0 0 0 0 0 0 0 0 0 0 0 0 0
18 17 16 14 12 10 8 7 6 4 3 2 1 1 1 0 0 0 0 0 0 0 0 0 0 0 0 0 0 0 0 0 0 0 0 0 0 0 0 0 0 0 0
19 18 16 14 11 9 7 6 4 3 2 1 1 1 0 0 0 0 0 0 0 0 0 0 0 0 0 0 0 0 0 0 0 0 0 0 0 0 0 0 0 0 0
17 15 13 11 9 7 5 4 3 2 1 1 1 0 0 0 0 0 0 0 0 0 0 0 0 0 0 0 0 0 0 0 0 0 0 0 0 0 0 0 0 0 0
12 11 9 7 6 4 3 3 2 2 1 1 0 0 0 0 0 0 0 0 0 0 0 0 0 0 0 0 0 0 0 0 0 0 0 0 0 0 0 0 0 0 0
8 7 6 4 3 3 2 2 2 1 1 1 0 0 0 0 0 0 0 0 0 0 0 0 0 0 0 0 0 0 0 0 0 0 0 0 0 0 0 0 0 0 0
Wind_Speed
17 17 18 16 14 13 13 13 13 12 12 12 12 11 11 11 10 10 10 10 11 12 12 12 11 11 10 9 9 8 8 7 6 6 6 7 7 7 8 8 6 8 11
19 17 17 16 14 14 13 13 13 13 13 12 12 11 11 10 10 9 9 9 10 11 11 11 11 10 9 8 7 6 5 4 2 1 1 3 4 4 5 6 9 7 9
18 16 16 15 14 14 13 13 13 13 13 13 12 11 11 10 9 8 8 8 9 9 10 10 9 8 7 6 5 3 2 1 2 3 4 4 5 5 4 5 6 7 7
18 15 15 16 14 14 13 13 13 13 13 12 12 11 10 9 8 8 8 8 8 9 9 9 8 7 6 4 3 1 2 4 6 6 5 4 5 7 5 5 5 5 5
16 15 16 16 14 13 13 12 12 12 12 11 11 10 9 9 8 7 7 8 8 8 8 8 7 6 5 3 2 1 3 6 8 9 7 3 6 10 8 6 5 4 4
17 16 16 16 14 13 12 11 11 11 10 10 10 9 8 8 7 7 7 8 7 7 7 7 6 6 4 3 2 3 5 8 9 8 4 5 7 9 8 6 5 4 4
17 16 16 15 14 13 12 11 10 10 9 9 8 8 7 7 6 6 7 7 7 7 7 7 6 5 4 2 1 3 6 10 8 6 4 9 9 10 9 7 5 4 3
18 17 15 15 15 13 12 11 10 9 8 8 8 7 7 6 6 6 7 7 7 7 7 7 6 5 3 1 1 4 7 11 8 3 8 9 10 10 9 8 6 4 3
19 17 14 14 13 13 12 11 10 9 9 8 8 7 7 7 7 7 7 7 7 7 6 6 5 4 3 2 3 6 8 10 9 3 8 7 10 10 8 6 5 4 4
17 17 15 14 13 12 11 12 12 11 10 9 9 8 8 8 7 8 8 7 7 6 6 6 5 5 5 5 6 8 9 10 8 1 7 8 11 9 7 5 4 4 3
15 15 16 16 14 13 13 12 12 11 10 10 9 9 8 6 7 7 8 9 8 7 7 7 7 7 7 8 9 10 8 6 6 4 6 11 11 9 7 5 4 3 3
14 15 15 16 14 14 12 10 9 9 9 9 7 8 6 4 4 7 9 10 9 9 8 9 9 9 8 6 9 10 5 7 5 4 7 13 11 9 7 5 4 3 3
13 12 16 15 11 13 10 9 7 6 7 8 8 7 4 4 5 6 5 6 6 8 7 7 8 7 6 2 1 4 3 3 3 4 7 11 10 9 7 5 5 4 4
14 12 14 14 9 9 10 7 6 6 5 3 5 4 3 2 1 2 3 5 5 4 5 4 4 5 1 2 3 4 4 2 2 4 5 10 9 8 7 6 5 5 5
14 11 12 13 8 6 5 5 5 5 5 5 5 2 2 1 1 1 1 2 2 1 1 1 2 3 3 3 3 3 3 4 4 3 4 8 8 8 8 7 6 5 5
15 12 12 13 10 7 4 2 4 5 4 5 4 4 2 2 3 2 2 1 2 3 4 3 4 4 3 3 4 5 5 5 4 3 1 5 7 8 9 9 8 7 6
15 12 12 13 11 9 7 5 4 5 5 5 4 4 3 3 3 1 1 2 3 2 2 2 4 3 3 3 3 4 3 3 4 4 3 1 4 8 9 9 8 7 6
15 13 13 13 14 10 7 5 4 5 5 5 5 4 4 3 3 1 2 4 3 3 2 2 2 3 4 4 4 4 4 4 5 5 4 4 3 3 6 9 9 9 9
13 13 11 11 14 12 9 5 5 5 5 5 5 5 4 4 3 2 4 4 3 2 3 4 5 4 4 5 5 4 3 4 5 7 5 5 4 3 3 7 11 11 11
14 13 11 10 12 10 8 6 5 6 5 5 5 5 6 4 5 4 3 4 4 3 4 4 3 3 3 3 6 6 4 5 5 6 7 5 3 4 3 3 3 6 11
14 13 12 11 11 9 7 7 6 6 5 5 5 6 6 6 5 4 4 3 3 3 3 3 3 4 3 3 3 4 5 6 6 5 3 2 2 2 2 2 2 2 4
13 13 11 10 11 9 6 4 4 6 5 5 5 5 6 6 4 4 4 2 3 2 0 0 1 2 4 3 3 4 4 4 3 5 3 2 2 2 3 6 4 4 4
15 13 11 10 10 7 7 6 6 5 5 4 5 4 4 5 5 5 4 4 3 2 2 2 2 2 3 4 3 3 3 3 5 4 6 5 4 3 3 3 5 5 6
12 11 10 10 9 7 7 7 8 6 6 5 5 5 4 4 4 4 4 3 2 3 2 3 5 3 3 4 4 3 3 3 3 4 4 5 6 5 4 6 6 6 6
12 11 10 10 9 8 6 6 6 5 5 5 6 6 5 4 3 4 4 3 1 1 3 3 2 3 3 3 4 5 5 4 4 5 6 5 5 4 5 5 4 4 5
12 11 10 10 8 7 6 5 4 6 7 7 6 5 3 4 4 4 5 3 0 2 2 1 1 3 2 2 3 3 4 5 5 5 7 7 6 5 6 5 5 5 6
Wind_Direction
113 119 116 111 106 101 103 108 112 115 116 117 114 109 103 97 92 88 84 83 85 88 91 92 91 88 83 76 70 65 60 56 55 62 71 76 76 71 63 53 39 86 85
117 119 117 114 112 108 107 111 112 114 116 116 115 111 107 103 99 94 90 89 91 94 95 95 94 91 88 83 78 71 64 53 37 32 95 132 117 99 80 61 53 82 91
115 122 121 119 118 115 113 114 116 115 116 115 115 113 111 108 105 101 97 95 96 98 100 100 99 98 96 93 88 77 56 329 283 273 262 232 152 136 114 90 85 94 95
121 132 126 127 125 122 120 118 119 120 119 118 116 115 113 111 108 106 105 103 103 105 107 106 105 104 102 98 89 58 313 288 282 279 255 225 144 144 139 117 110 111 113
124 125 129 135 132 129 126 123 123 123 121 120 118 115 112 109 107 108 108 108 109 109 110 110 108 105 101 92 66 343 301 290 289 278 265 154 125 150 146 136 130 133 139
128 128 136 139 137 133 130 128 127 124 122 121 119 116 112 108 106 107 109 109 108 108 106 106 104 99 92 78 36 330 303 293 292 274 238 126 119 137 132 128 128 136 155
132 130 139 140 139 138 136 135 133 130 127 124 122 119 116 113 110 108 110 110 109 107 106 107 106 102 96 82 21 319 301 295 279 280 84 94 104 111 107 102 101 109 139
131 129 137 142 144 145 144 143 141 137 134 131 129 127 124 122 118 115 113 111 110 110 112 114 116 116 114 100 325 300 294 292 291 293 98 97 100 96 95 92 87 86 90
130 132 144 147 150 151 151 150 146 141 139 138 138 140 142 141 137 131 124 120 120 120 122 127 133 142 155 195 260 278 284 290 291 265 108 102 106 103 101 97 94 93 88
137 141 149 151 153 157 157 155 150 148 148 150 154 161 164 163 159 149 141 133 137 139 143 150 162 179 198 219 241 259 275 292 272 279 104 116 114 111 108 106 106 107 111
142 147 153 152 158 162 158 153 154 157 161 164 172 182 184 189 172 165 149 150 158 163 167 176 191 204 214 225 239 252 268 266 269 111 118 128 127 124 122 124 130 139 146
152 159 152 151 162 164 152 151 166 173 172 189 182 184 197 192 168 155 153 167 176 181 183 200 211 219 224 223 227 243 253 256 276 114 121 132 130 132 136 147 162 175 180
159 165 149 153 164 156 144 167 171 174 168 196 176 177 174 176 160 157 163 172 191 193 199 204 216 226 225 216 196 233 261 312 325 87 126 132 133 141 151 166 186 200 207
164 169 151 145 160 149 150 164 157 154 169 165 136 172 159 175 174 156 174 182 197 195 196 195 222 215 203 325 290 285 299 298 333 89 137 140 141 149 160 172 190 206 217
164 167 148 144 136 112 113 151 158 142 152 132 139 159 123 161 141 109 63 48 327 62 128 313 326 28 20 323 302 310 330 340 339 21 127 156 160 168 176 185 195 207 225
161 162 143 141 129 119 123 157 125 124 116 128 126 123 103 68 81 59 76 58 351 24 38 356 350 3 344 333 331 334 334 328 333 340 144 166 186 191 195 197 201 210 227
155 153 142 144 141 146 158 176 144 134 139 121 108 106 95 79 87 47 102 101 37 14 28 354 356 336 318 327 322 325 322 319 311 313 312 246 201 209 213 213 210 215 232
157 151 152 158 153 159 163 176 153 147 133 121 122 113 102 88 79 30 55 66 19 357 17 20 2 353 1 352 343 335 331 322 303 284 268 263 256 229 215 220 217 221 236
153 151 157 154 154 163 158 153 122 110 117 120 116 113 104 89 77 56 75 61 1 9 32 16 39 12 353 346 320 298 307 308 306 297 293 279 274 266 230 215 223 232 243
152 151 154 149 152 155 148 140 130 123 115 104 101 102 102 91 69 43 89 69 22 25 44 38 13 355 323 299 295 304 305 284 277 269 268 266 259 264 272 278 245 249 259
150 153 155 155 152 152 153 157 149 143 129 114 106 102 94 84 76 60 60 78 55 49 44 21 17 333 311 308 306 296 280 269 261 256 265 278 280 286 287 294 284 285 276
152 154 154 151 151 157 153 147 139 130 119 108 103 101 104 100 93 98 74 50 59 36 290 34 2 312 309 329 316 301 299 295 325 350 341 311 318 341 330 311 316 304 291
156 159 156 150 150 153 140 126 118 105 110 116 122 112 108 110 99 77 77 57 37 339 53 7 339 330 326 322 296 300 312 317 341 321 338 340 337 321 308 310 293 280 274
148 143 138 134 135 132 130 142 149 154 155 153 140 127 121 109 110 105 90 76 43 347 28 357 45 349 330 306 316 330 318 315 300 304 307 302 302 303 291 285 282 282 275
133 130 128 124 124 128 140 155 163 150 134 122 116 128 137 127 124 117 107 83 47 15 57 19 1 341 322 333 342 340 331 320 288 276 292 299 305 295 287 279 283 288 292
126 123 124 124 126 133 140 145 145 127 123 125 130 142 162 151 152 132 119 100 47 49 49 344 333 295 321 350 331 318 314 313 318 319 311 307 300 304 314 316 305 286 277